Total_Precipitation_Accumulation
0.00 0.01 0.07 0.18 0.32 0.60 0.77 0.53 0.41 0.30 0.30 0.36 0.39 0.36 0.31 0.24 0.27 0.22 0.06 0.02 0.01 0.00 0.01 0.04 0.08 0.07 0.05 0.04 0.06 0.07 0.08 0.08 0.09 0.08 0.07 0.05 0.03 0.02 0.02 0.01 0.01 0.02 0.03 0.03 0.03 0.03 0.02 0.02 0.02
0.00 0.01 0.05 0.14 0.36 0.76 0.86 0.51 0.36 0.28 0.32 0.34 0.31 0.33 0.34 0.28 0.13 0.04 0.03 0.02 0.01 0.01 0.01 0.01 0.04 0.06 0.05 0.05 0.06 0.07 0.07 0.08 0.07 0.07 0.06 0.04 0.03 0.02 0.01 0.01 0.02 0.02 0.03 0.03 0.03 0.03 0.02 0.01 0.01
0.00 0.01 0.04 0.10 0.27 0.53 0.60 0.43 0.34 0.26 0.36 0.51 0.41 0.32 0.28 0.22 0.10 0.03 0.01 0.01 0.01 0.01 0.00 0.01 0.03 0.05 0.05 0.05 0.05 0.05 0.06 0.06 0.06 0.06 0.05 0.03 0.03 0.03 0.02 0.02 0.03 0.04 0.05 0.05 0.04 0.03 0.03 0.02 0.01
0.00 0.02 0.04 0.08 0.14 0.26 0.33 0.34 0.33 0.36 0.54 0.68 0.53 0.30 0.21 0.14 0.08 0.02 0.01 0.00 0.01 0.01 0.01 0.02 0.04 0.04 0.05 0.05 0.04 0.04 0.05 0.05 0.05 0.05 0.05 0.04 0.04 0.04 0.04 0.04 0.04 0.05 0.06 0.08 0.07 0.05 0.04 0.02 0.02
0.00 0.01 0.03 0.06 0.11 0.16 0.19 0.25 0.38 0.42 0.63 0.70 0.48 0.31 0.21 0.13 0.07 0.02 0.01 0.01 0.01 0.01 0.02 0.03 0.05 0.05 0.04 0.04 0.04 0.05 0.05 0.05 0.06 0.05 0.05 0.04 0.05 0.06 0.06 0.07 0.07 0.07 0.09 0.10 0.11 0.09 0.06 0.04 0.03
0.00 0.01 0.01 0.03 0.05 0.08 0.12 0.21 0.35 0.47 0.64 0.70 0.53 0.47 0.26 0.17 0.11 0.05 0.03 0.01 0.02 0.02 0.02 0.03 0.05 0.06 0.06 0.05 0.05 0.07 0.07 0.07 0.07 0.07 0.07 0.07 0.08 0.09 0.11 0.12 0.11 0.12 0.13 0.14 0.15 0.13 0.11 0.07 0.05
0.00 0.00 0.00 0.01 0.02 0.07 0.13 0.21 0.37 0.51 0.64 0.83 0.72 0.57 0.33 0.25 0.19 0.12 0.06 0.03 0.03 0.02 0.02 0.04 0.04 0.06 0.07 0.08 0.08 0.08 0.09 0.10 0.10 0.10 0.10 0.09 0.09 0.11 0.13 0.15 0.16 0.17 0.18 0.18 0.18 0.18 0.17 0.15 0.12
0.00 0.00 0.00 0.00 0.01 0.04 0.11 0.21 0.36 0.50 0.70 0.80 0.67 0.61 0.46 0.29 0.27 0.20 0.12 0.09 0.08 0.05 0.05 0.05 0.06 0.08 0.08 0.08 0.08 0.09 0.09 0.10 0.11 0.12 0.13 0.13 0.14 0.15 0.19 0.21 0.23 0.25 0.25 0.24 0.26 0.27 0.28 0.26 0.21
0.00 0.00 0.00 0.00 0.01 0.03 0.12 0.28 0.41 0.43 0.53 0.78 0.97 0.75 0.52 0.36 0.40 0.33 0.23 0.19 0.14 0.10 0.10 0.10 0.10 0.10 0.12 0.12 0.15 0.19 0.21 0.24 0.23 0.26 0.26 0.25 0.27 0.34 0.42 0.39 0.44 0.46 0.52 0.53 0.50 0.50 0.53 0.51 0.36
0.00 0.00 0.00 0.00 0.00 0.03 0.13 0.33 0.47 0.54 0.70 0.91 1.06 0.89 0.63 0.49 0.55 0.58 0.43 0.29 0.23 0.21 0.18 0.17 0.18 0.17 0.21 0.23 0.30 0.45 0.53 0.64 0.63 0.67 0.69 0.68 0.62 0.53 0.46 0.53 0.70 0.76 0.92 1.03 1.12 1.21 1.07 0.85 0.63
0.00 0.00 0.00 0.00 0.00 0.04 0.15 0.18 0.26 0.49 0.94 1.20 1.38 1.06 0.68 0.61 0.66 0.77 0.69 0.48 0.39 0.39 0.31 0.28 0.29 0.30 0.36 0.42 0.47 0.58 0.69 0.88 0.95 0.92 1.03 1.12 1.00 0.83 0.72 0.81 1.01 1.11 1.29 1.37 1.66 1.83 1.31 1.22 1.29
0.00 0.00 0.00 0.00 0.00 0.02 0.08 0.16 0.29 0.56 0.94 1.09 0.99 0.86 0.69 0.72 0.72 0.85 0.86 0.73 0.65 0.58 0.49 0.52 0.55 0.52 0.54 0.63 0.70 0.65 0.65 0.75 0.87 0.97 1.08 1.25 1.16 1.06 1.09 1.11 1.16 1.38 1.53 1.76 1.78 1.89 1.88 1.91 1.81
0.00 0.00 0.00 0.00 0.00 0.02 0.06 0.16 0.26 0.46 0.67 0.68 0.51 0.58 0.78 0.81 0.83 0.93 0.98 0.92 0.87 0.84 0.83 0.83 0.85 0.86 0.91 0.91 0.86 0.67 0.64 0.67 0.72 0.86 0.95 1.24 1.45 1.41 1.53 1.36 1.31 1.19 1.49 1.84 2.05 2.10 2.25 2.34 2.30
0.00 0.00 0.01 0.01 0.02 0.02 0.05 0.11 0.26 0.59 0.59 0.50 0.53 0.63 0.79 1.04 0.96 1.00 1.13 1.11 1.04 1.12 1.22 1.23 1.29 1.31 1.29 1.16 0.99 0.86 0.80 0.77 0.78 0.90 1.09 1.56 1.73 1.63 1.70 1.64 1.55 1.33 1.47 1.79 2.15 2.23 2.44 2.39 2.42
0.00 0.02 0.07 0.05 0.03 0.03 0.07 0.27 0.47 0.64 0.60 0.55 0.67 0.70 0.84 1.20 1.16 1.20 1.27 1.24 1.29 1.47 1.62 1.73 1.81 1.70 1.61 1.47 1.23 1.01 0.86 0.79 0.90 1.11 1.32 1.62 1.79 1.88 2.06 1.95 1.63 1.48 1.66 1.85 1.87 1.98 2.44 2.28 2.21
0.01 0.05 0.20 0.12 0.04 0.05 0.12 0.48 0.67 0.71 0.70 0.68 0.75 0.90 0.95 1.19 1.13 1.07 1.16 1.31 1.50 1.79 2.12 2.34 2.41 2.39 2.28 1.95 1.61 1.37 1.25 1.20 1.30 1.40 1.38 1.36 1.52 1.71 1.88 1.62 1.31 1.48 1.76 1.89 1.79 1.79 2.14 2.18 2.17
0.05 0.07 0.16 0.14 0.08 0.07 0.16 0.51 0.56 0.44 0.70 0.93 1.03 1.12 1.04 1.06 1.15 1.13 1.17 1.35 1.70 2.09 2.55 2.93 3.09 2.91 2.63 2.10 1.69 1.40 1.45 1.48 1.48 1.41 1.23 1.09 1.03 1.08 1.19 1.03 0.98 1.21 1.48 1.48 1.31 1.43 1.69 1.78 1.84
0.03 0.07 0.12 0.16 0.12 0.13 0.23 0.46 0.58 0.47 0.64 0.85 0.88 1.12 1.10 1.02 1.10 1.24 1.31 1.43 1.77 2.18 2.65 3.01 3.20 2.89 2.38 2.02 1.82 1.55 1.44 1.39 1.38 1.23 1.02 0.83 0.77 0.75 0.83 0.82 0.79 0.88 0.92 0.94 1.09 1.24 1.39 1.28 1.34
0.03 0.06 0.14 0.15 0.14 0.20 0.34 0.58 0.69 0.61 0.61 0.63 0.70 0.88 0.86 0.85 0.96 1.20 1.38 1.57 1.95 2.49 3.01 3.18 2.92 2.29 1.87 1.60 1.45 1.27 1.12 1.02 0.95 0.87 0.78 0.69 0.69 0.64 0.64 0.61 0.63 0.69 0.68 0.68 0.82 0.95 0.95 0.78 0.94
0.04 0.08 0.15 0.15 0.11 0.13 0.32 0.61 0.67 0.68 0.72 0.65 0.67 0.72 0.59 0.65 0.86 1.27 1.70 2.02 2.35 2.54 2.62 2.49 2.09 1.49 1.14 0.92 0.78 0.64 0.55 0.54 0.54 0.52 0.52 0.53 0.54 0.54 0.53 0.50 0.48 0.48 0.52 0.53 0.59 0.70 0.70 0.62 0.73
0.07 0.07 0.13 0.16 0.11 0.13 0.31 0.67 0.78 0.73 0.70 0.63 0.51 0.49 0.56 0.70 1.12 1.72 2.23 2.51 2.47 2.26 1.86 1.41 1.04 0.73 0.62 0.48 0.40 0.30 0.25 0.24 0.25 0.27 0.30 0.33 0.33 0.33 0.33 0.32 0.32 0.34 0.39 0.42 0.48 0.56 0.59 0.52 0.51
0.08 0.06 0.05 0.06 0.10 0.28 0.40 0.75 0.79 0.78 0.72 0.51 0.47 0.53 0.63 0.84 1.28 1.86 2.21 2.13 1.95 1.61 1.10 0.73 0.56 0.43 0.35 0.29 0.28 0.25 0.20 0.19 0.20 0.21 0.23 0.23 0.22 0.23 0.23 0.21 0.21 0.22 0.25 0.33 0.35 0.44 0.54 0.53 0.43
0.05 0.04 0.04 0.07 0.14 0.26 0.36 0.57 0.74 0.73 0.75 0.40 0.34 0.43 0.54 0.74 0.94 1.07 1.14 1.05 0.86 0.66 0.62 0.57 0.48 0.43 0.39 0.32 0.29 0.25 0.21 0.19 0.20 0.21 0.22 0.24 0.25 0.23 0.23 0.22 0.20 0.21 0.21 0.24 0.28 0.36 0.46 0.52 0.47
0.04 0.05 0.11 0.19 0.30 0.53 0.51 0.61 0.79 0.76 0.65 0.32 0.19 0.25 0.42 0.54 0.54 0.47 0.39 0.31 0.28 0.25 0.28 0.29 0.30 0.37 0.41 0.38 0.32 0.29 0.24 0.21 0.19 0.18 0.18 0.20 0.23 0.25 0.25 0.25 0.26 0.26 0.26 0.26 0.26 0.28 0.33 0.45 0.53
0.04 0.08 0.29 0.56 0.79 0.78 0.44 0.48 0.75 0.73 0.46 0.21 0.10 0.09 0.16 0.30 0.37 0.38 0.33 0.25 0.20 0.17 0.15 0.15 0.15 0.18 0.21 0.23 0.24 0.24 0.24 0.22 0.19 0.17 0.15 0.16 0.17 0.20 0.22 0.23 0.25 0.27 0.30 0.30 0.28 0.28 0.28 0.36 0.46
0.05 0.06 0.15 0.28 0.33 0.40 0.42 0.80 0.89 0.48 0.24 0.12 0.05 0.04 0.08 0.16 0.21 0.25 0.23 0.18 0.14 0.11 0.08 0.07 0.07 0.08 0.08 0.09 0.11 0.12 0.15 0.16 0.18 0.21 0.17 0.17 0.18 0.19 0.20 0.20 0.19 0.22 0.27 0.31 0.34 0.32 0.33 0.36 0.38
0.04 0.03 0.05 0.07 0.12 0.29 0.51 0.74 0.54 0.27 0.18 0.07 0.03 0.02 0.04 0.08 0.10 0.10 0.09 0.08 0.06 0.06 0.05 0.05 0.04 0.03 0.03 0.04 0.05 0.06 0.09 0.13 0.15 0.17 0.17 0.17 0.22 0.21 0.20 0.20 0.20 0.22 0.24 0.28 0.32 0.32 0.34 0.37 0.38
0.04 0.04 0.04 0.06 0.11 0.23 0.40 0.67 0.59 0.29 0.16 0.05 0.02 0.02 0.04 0.05 0.06 0.06 0.05 0.05 0.03 0.03 0.03 0.03 0.02 0.02 0.02 0.02 0.02 0.02 0.04 0.07 0.10 0.11 0.13 0.15 0.16 0.19 0.20 0.20 0.19 0.20 0.21 0.23 0.26 0.28 0.35 0.42 0.47
0.06 0.05 0.05 0.05 0.06 0.10 0.24 0.39 0.24 0.15 0.07 0.02 0.01 0.01 0.02 0.03 0.03 0.03 0.03 0.02 0.02 0.02 0.02 0.02 0.02 0.02 0.02 0.02 0.01 0.01 0.03 0.04 0.06 0.10 0.13 0.15 0.13 0.13 0.14 0.16 0.18 0.19 0.21 0.25 0.31 0.34 0.38 0.48 0.60
0.06 0.06 0.06 0.06 0.05 0.05 0.09 0.15 0.10 0.08 0.05 0.02 0.01 0.00 0.00 0.01 0.01 0.01 0.01 0.01 0.01 0.01 0.01 0.02 0.02 0.02 0.02 0.02 0.02 0.01 0.02 0.02 0.04 0.07 0.10 0.11 0.12 0.12 0.12 0.13 0.14 0.14 0.15 0.21 0.31 0.42 0.44 0.47 0.55